OK1ZDJ-13 Weather Reports


time (UTC)temp
C
wind
direction
speed
KPH
gust
KPH
rain 1hr
cm
rain 24hr
cm
rain mn
cm
humidity
%
barometer
mb
20260507034818 12 0.0 0.0 0.00 0.00 0.00 99 1010.1
20260507033822 12 0.0 0.0 0.00 0.00 0.00 10 1010.0
20260507032817 12 0.0 0.0 0.00 0.00 0.00 10 1009.9
20260507031816 12 0.0 0.0 0.00 0.00 0.00 10 1009.9
20260507030817 12 0.0 0.0 0.00 0.00 0.00 10 1009.9
20260507025816 12 0.0 0.0 0.00 0.00 0.00 10 1009.9
20260507024816 12 0.0 0.0 0.00 0.00 0.00 10 1009.8
20260507023816 12 0.0 0.0 0.00 0.00 0.00 99 1009.8
20260507022816 12 0.0 0.0 0.00 0.00 0.00 98 1009.9
20260507021816 12 0.0 0.0 0.00 0.00 0.00 98 1009.8
20260507020816 11 0.0 0.0 0.00 0.00 0.00 97 1009.8
20260507015816 11 0.0 0.0 0.00 0.00 0.00 96 1009.8
20260507014816 11 0.0 0.0 0.00 0.00 0.00 95 1009.8
20260507013816 12 0.0 0.0 0.00 0.00 0.00 95 1009.7
20260507012816 12 0.0 0.0 0.00 0.00 0.00 96 1009.5
20260507011816 12 0.0 0.0 0.00 0.00 0.00 97 1009.6
20260507010816 12 0.0 0.0 0.00 0.00 0.00 97 1009.6
20260507005816 12 0.0 0.0 0.00 0.00 0.00 97 1009.5
20260507004816 12 0.0 0.0 0.00 0.00 0.00 97 1009.4
20260507003816 12 0.0 0.0 0.00 0.00 0.00 97 1009.2
20260507002816 12 0.0 0.0 0.00 0.00 0.00 97 1008.9
20260507001816 12 0.0 0.0 0.00 0.00 0.00 97 1008.7
20260507000816 12 0.0 0.0 0.00 0.00 0.00 96 1008.6
20260506234816 12 0.0 0.0 0.00 0.00 0.00 96 1008.3
20260506233816 12 0.0 0.0 0.00 0.00 0.00 95 1008.1
20260506232816 13 0.0 0.0 0.00 0.00 0.00 95 1008.1
20260506231816 13 0.0 0.0 0.00 0.00 0.00 95 1007.9
20260506230818 13 0.0 0.0 0.00 0.00 0.00 96 1007.9
20260506225816 13 0.0 0.0 0.00 0.00 0.00 96 1007.0
20260506224816 13 0.0 0.0 0.00 0.00 0.00 94 1007.8
20260506223816 13 0.0 0.0 0.00 0.00 0.00 94 1008.7
20260506222816 13 0.0 0.0 0.00 0.00 0.00 94 1008.8
20260506221816 13 0.0 0.0 0.00 0.00 0.00 93 1009.0
20260506220816 13 0.0 0.0 0.00 0.00 0.00 92 1008.9
20260506215816 13 0.0 0.0 0.00 0.00 0.00 92 1009.3
20260506214816 13 0.0 0.0 0.00 0.00 0.00 91 1008.3
20260506213821 13 0.0 0.0 0.00 0.00 0.00 92 1008.6
20260506212815 13 0.0 0.0 0.00 0.00 0.00 90 1008.0
20260506211815 13 0.0 0.0 0.00 0.00 0.00 94 1007.7
20260506204815 13 0.0 0.0 0.00 0.00 0.00 93 1007.3
20260506203815 13 0.0 0.0 0.00 0.00 0.00 93 1007.7
20260506202815 13 0.0 0.0 0.00 0.00 0.00 93 1007.6
20260506201815 13 0.0 0.0 0.00 0.00 0.00 92 1007.4
20260506195815 13 0.0 0.0 0.00 0.00 0.00 92 1006.7
20260506194815 13 0.0 0.0 0.00 0.00 0.00 92 1006.4
20260506193815 13 0.0 0.0 0.00 0.00 0.00 93 1006.4
20260506192815 13 0.0 0.0 0.00 0.00 0.00 93 1006.4
20260506191815 13 0.0 0.0 0.00 0.00 0.00 92 1006.3
20260506190815 13 0.0 0.0 0.00 0.00 0.00 93 1006.1
20260506184815 13 0.0 0.0 0.00 0.00 0.00 92 1006.0
20260506183815 13 0.0 0.0 0.00 0.00 0.00 91 1006.0
20260506182815 13 0.0 0.0 0.00 0.00 0.00 90 1006.1
20260506181815 13 0.0 0.0 0.00 0.00 0.00 92 1006.0
20260506180815 13 0.0 0.0 0.00 0.00 0.00 92 1006.1
20260506175815 13 0.0 0.0 0.00 0.00 0.00 92 1006.4
20260506174815 13 0.0 0.0 0.00 0.00 0.00 92 1006.5
20260506173815 13 0.0 0.0 0.00 0.00 0.00 90 1006.5
20260506172815 13 0.0 0.0 0.00 0.00 0.00 91 1006.7
20260506171815 13 0.0 0.0 0.00 0.00 0.00 90 1007.1
20260506170815 13 0.0 0.0 0.00 0.00 0.00 87 1007.2
20260506165815 14 0.0 0.0 0.00 0.00 0.00 84 1007.5
20260506164815 15 0.0 0.0 0.00 0.00 0.00 81 1005.9
20260506163815 16 0.0 0.0 0.00 0.00 0.00 83 1005.5
20260506162815 16 0.0 0.0 0.00 0.00 0.00 82 1005.8
20260506161815 16 0.0 0.0 0.00 0.00 0.00 82 1006.2
20260506160815 17 0.0 0.0 0.00 0.00 0.00 79 1006.8
20260506155815 17 0.0 0.0 0.00 0.00 0.00 79 1006.7
20260506154815 17 0.0 0.0 0.00 0.00 0.00 79 1006.0
20260506153819 17 0.0 0.0 0.00 0.00 0.00 73 1006.0
20260506152813 17 0.0 0.0 0.00 0.00 0.00 75 1006.0
20260506150813 18 0.0 0.0 0.00 0.00 0.00 65 1006.8
20260506145813 22 0.0 0.0 0.00 0.00 0.00 49 1006.6
20260506143813 23 0.0 0.0 0.00 0.00 0.00 36 1006.2
20260506141813 23 0.0 0.0 0.00 0.00 0.00 39 1006.3
20260506140813 23 0.0 0.0 0.00 0.00 0.00 36 1006.5
20260506135813 23 0.0 0.0 0.00 0.00 0.00 37 1006.5
20260506134813 23 0.0 0.0 0.00 0.00 0.00 37 1006.6
20260506133813 23 0.0 0.0 0.00 0.00 0.00 37 1006.7
20260506132813 23 0.0 0.0 0.00 0.00 0.00 37 1006.9
20260506131813 23 0.0 0.0 0.00 0.00 0.00 38 1007.1
20260506124813 22 0.0 0.0 0.00 0.00 0.00 37 1007.4
20260506123813 22 0.0 0.0 0.00 0.00 0.00 38 1007.7
20260506122813 22 0.0 0.0 0.00 0.00 0.00 37 1007.9
20260506121813 22 0.0 0.0 0.00 0.00 0.00 40 1007.9
20260506120813 22 0.0 0.0 0.00 0.00 0.00 40 1007.9
20260506115813 22 0.0 0.0 0.00 0.00 0.00 42 1008.0
20260506114813 21 0.0 0.0 0.00 0.00 0.00 42 1008.1
20260506113813 21 0.0 0.0 0.00 0.00 0.00 42 1008.3
20260506112813 21 0.0 0.0 0.00 0.00 0.00 42 1008.5
20260506111813 21 0.0 0.0 0.00 0.00 0.00 44 1008.5
20260506105813 20 0.0 0.0 0.00 0.00 0.00 45 1008.5
20260506104813 20 0.0 0.0 0.00 0.00 0.00 46 1008.6
20260506103813 20 0.0 0.0 0.00 0.00 0.00 46 1008.7
20260506102813 20 0.0 0.0 0.00 0.00 0.00 48 1008.8
20260506101813 20 0.0 0.0 0.00 0.00 0.00 47 1008.9
20260506100813 20 0.0 0.0 0.00 0.00 0.00 50 1008.9
20260506095813 19 0.0 0.0 0.00 0.00 0.00 50 1008.8
20260506094813 19 0.0 0.0 0.00 0.00 0.00 49 1008.8
20260506093818 19 0.0 0.0 0.00 0.00 0.00 50 1008.8
20260506092812 19 0.0 0.0 0.00 0.00 0.00 49 1008.8
20260506091812 19 0.0 0.0 0.00 0.00 0.00 51 1008.8
20260506090812 18 0.0 0.0 0.00 0.00 0.00 52 1008.8
20260506085812 18 0.0 0.0 0.00 0.00 0.00 53 1008.7
20260506084812 18 0.0 0.0 0.00 0.00 0.00 54 1008.7
20260506083812 18 0.0 0.0 0.00 0.00 0.00 55 1008.7
20260506082812 17 0.0 0.0 0.00 0.00 0.00 55 1008.6
20260506081812 17 0.0 0.0 0.00 0.00 0.00 56 1008.6
20260506080812 17 0.0 0.0 0.00 0.00 0.00 58 1008.6
20260506071812 16 0.0 0.0 0.00 0.00 0.00 64 1008.8
20260506070812 16 0.0 0.0 0.00 0.00 0.00 65 1008.9
20260506061812 17 0.0 0.0 0.00 0.00 0.00 61 1008.4
20260506060812 17 0.0 0.0 0.00 0.00 0.00 62 1008.5
20260506050812 14 0.0 0.0 0.00 0.00 0.00 85 1008.3
20260506044812 12 0.0 0.0 0.00 0.00 0.00 92 1008.3
20260506043812 12 0.0 0.0 0.00 0.00 0.00 92 1008.5
20260506042812 12 0.0 0.0 0.00 0.00 0.00 92 1008.4
20260506041812 12 0.0 0.0 0.00 0.00 0.00 92 1008.1
20260506035812 12 0.0 0.0 0.00 0.00 0.00 91 1007.8